[[{"header":{"parameterUnit":"m.s-1","parameterCategory":1,"la1":30.2991,"la2":30.254,"lo1":-89.0895,"lo2":-89.0444,"dy":0.0017,"dx":0.0017,"nx":28,"ny":28,"refTime":"2023-11-20T03:00:00:Z","depth":0,"parameterNumber":2,"parameterNumberName":"U-component_of_WINDS"},"data":[0,0,0,0,0,0,0,0,0,0,0,0,0,0,0,0,0,0,0,0,0,0,0,0,0,0,0,0,0,0,0,0,0,0,0,0,0,0,0,0,0,0,0,0,0,0,0,0,0,0,0,0,0,0,0,0,0,0,-2.3132,-2.3133,0,-2.3186,-2.3187,-2.3187,-2.3161,-2.3159,-2.3158,-2.3157,-2.3211,-2.3214,-2.3217,0,0,0,0,0,0,0,0,0,0,0,0,0,-2.3006,-2.3008,-2.3132,-2.3133,-2.3134,-2.3186,-2.3187,-2.3188,-2.3161,-2.3159,-2.3158,-2.3156,-2.321,-2.3214,-2.3217,0,0,0,0,0,0,0,0,0,0,0,0,0,-2.306,-2.3009,-2.3132,-2.3127,-2.3127,-2.3186,-2.3187,-2.3188,-2.3161,-2.3159,-2.3157,-2.3155,-2.3209,-2.3213,-2.3217,-2.3285,0,0,-2.323,-2.3232,0,0,0,0,0,0,0,0,-2.3057,-2.3065,-2.3127,-2.3127,-2.3127,-2.3165,-2.3162,-2.322,-2.3162,-2.3148,-2.3157,-2.3154,-2.3197,-2.3202,-2.3217,-2.3287,-2.329,-2.323,-2.3233,-2.3235,-2.3236,0,0,0,0,0,0,0,-2.3054,-2.3063,-2.3154,-2.3128,-2.3128,-2.3121,-2.3127,-2.3173,-2.3184,-2.3149,-2.3147,-2.3154,-2.3197,-2.3213,-2.3218,-2.3291,-2.323,-2.3234,-2.3236,-2.3238,-2.3419,-2.3421,0,0,0,0,0,0,-2.305,-2.306,-2.3152,-2.3155,-2.3086,-2.3125,-2.3131,-2.3155,-2.3183,-2.3186,-2.3156,-2.3153,-2.3207,-2.3213,-2.322,-2.33,-2.3235,-2.3239,-2.3241,-2.3416,-2.3419,-2.3422,0,0,0,0,0,0,-2.3047,-2.3059,-2.315,-2.3107,-2.3118,-2.313,-2.3156,-2.3157,-2.3173,-2.3188,-2.319,-2.317,-2.3206,-2.3214,-2.3269,-2.3302,-2.324,-2.3244,-2.3414,-2.3417,-2.342,-2.3462,0,0,0,0,0,0,-2.3044,-2.3058,-2.3084,-2.3108,-2.312,-2.3198,-2.3158,-2.316,-2.318,-2.3177,-2.3202,-2.3205,-2.3205,-2.3263,-2.3273,-2.3307,-2.3247,-2.3411,-2.3415,-2.3419,-2.3458,-2.3467,-2.3474,0,0,0,0,0,-2.3039,-2.3093,-2.3085,-2.3096,-2.3153,-2.32,-2.3207,-2.3206,-2.3183,-2.3209,-2.3219,-2.3204,-2.3297,-2.3269,-2.328,-2.3315,-2.3409,-2.3414,-2.3419,-2.3454,-2.3465,-2.3474,0,0,0,0,0,0,-2.3073,-2.3096,-2.3087,-2.3151,-2.3174,-2.3195,-2.3228,-2.3218,-2.3248,-2.3243,-2.324,-2.3246,-2.3303,-2.3315,-2.3283,-2.3382,-2.3349,-2.3357,-2.3372,-2.3382,-2.339,-2.3386,-2.3251,0,0,0,0,0,-2.3087,-2.3124,-2.3142,-2.3196,-2.3208,-2.3216,-2.3237,-2.3234,-2.3258,-2.3267,-2.3281,-2.3304,-2.3338,-2.3361,-2.3394,-2.346,-2.3465,-2.349,-2.3498,-2.3504,-2.3511,-2.3546,-2.3557,-2.3439,-2.3439,-2.3439,0,0,-2.3118,-2.3135,-2.3158,-2.3203,-2.3221,-2.3258,-2.3225,-2.3266,-2.3293,-2.3273,-2.3325,-2.3337,-2.3362,-2.3423,-2.345,-2.3434,-2.3545,-2.3511,-2.3516,-2.3519,-2.3552,-2.3564,-2.3573,-2.3442,-2.3442,-2.3441,0,0,-2.3192,-2.321,-2.3256,-2.3274,-2.3301,-2.3306,-2.3317,-2.3341,-2.3348,-2.34,-2.3386,-2.3419,-2.3478,-2.3497,-2.3514,-2.3597,-2.3584,-2.3607,-2.3649,-2.3684,-2.3693,-2.3701,-2.373,-2.374,-2.3614,-2.3614,-2.3614,0,-2.3227,-2.3283,-2.3281,-2.3323,-2.3343,-2.3328,-2.3374,-2.3392,-2.3428,-2.3442,-2.3424,-2.3498,-2.3514,-2.3579,-2.3599,-2.3614,-2.3626,-2.3604,-2.3692,-2.37,-2.3708,-2.3735,-2.3746,-2.3617,-2.3616,-2.3616,-2.3616,0,-2.3324,-2.3363,-2.3397,-2.3432,-2.3456,-2.3501,-2.3506,-2.353,-2.3526,-2.3533,-2.3586,-2.3605,-2.3641,-2.3657,-2.3653,-2.3721,-2.371,-2.3692,-2.3659,-2.3722,-2.3747,-2.3758,-2.362,-2.3619,-2.3619,-2.3618,0,0,-2.342,-2.3454,-2.3467,-2.3482,-2.3511,-2.3541,-2.3584,-2.362,-2.364,-2.3666,-2.3702,-2.3753,-2.3737,-2.3757,-2.3755,-2.3785,-2.3848,-2.3763,-2.3764,-2.3778,-2.3923,-2.3936,-2.3948,-2.384,-2.3842,-2.3843,-2.3921,0,-2.3496,-2.3572,-2.3572,-2.3643,-2.3678,-2.3664,-2.3702,-2.3723,-2.3731,-2.3762,-2.3771,-2.3807,-2.3783,-2.3795,-2.3824,-2.3834,-2.3877,-2.3829,-2.3873,-2.3874,-2.3866,-2.3961,-2.3975,-2.4047,-2.3931,-2.3933,-2.3934,0,-2.3595,-2.3624,-2.3698,-2.3721,-2.3736,-2.377,-2.3802,-2.3832,-2.3856,-2.386,-2.3882,-2.3875,-2.3919,-2.3886,-2.3946,-2.3913,-2.3932,-2.3939,-2.3942,-2.3945,-2.3907,-2.3967,-2.407,-2.4081,-2.395,-2.3948,-2.3947,0,-2.3657,-2.3714,-2.3766,-2.378,-2.3808,-2.3832,-2.3845,-2.3867,-2.3888,-2.3917,-2.393,-2.3963,-2.3981,-2.4007,-2.4009,-2.3985,-2.407,-2.4037,-2.4074,-2.4074,-2.4092,-2.409,-2.4198,-2.4105,-2.4105,-2.4104,-2.4104,0,-2.3742,-2.3787,-2.3794,-2.3826,-2.3876,-2.3876,-2.3926,-2.3936,-2.3956,-2.3989,-2.3979,-2.4011,-2.4012,-2.4044,-2.4047,-2.4096,-2.4104,-2.4108,-2.4108,-2.4109,-2.4108,-2.412,-2.4115,-2.4107,-2.4107,-2.4106,-2.4106,0,-2.3819,-2.3826,-2.3881,-2.3903,-2.391,-2.3946,-2.3965,-2.3995,-2.4002,-2.4044,-2.4054,-2.4065,-2.4102,-2.4107,-2.4151,-2.4152,-2.4211,-2.4206,-2.4203,-2.4202,-2.4239,-2.4235,-2.4358,-2.4373,-2.427,-2.4271,-2.4272,0,-2.3872,-2.3907,-2.3933,-2.3955,-2.3969,-2.4004,-2.4025,-2.4026,-2.4049,-2.4079,-2.4105,-2.4142,-2.4171,-2.4231,-2.4242,-2.4276,-2.4271,-2.4312,-2.4276,-2.4275,-2.4271,-2.4268,-2.4271,-2.4318,-2.432,-2.432,-2.4321,0,-2.3966,-2.3967,-2.3999,-2.4031,-2.4057,-2.4083,-2.4107,-2.4126,-2.413,-2.4156,-2.4194,-2.4216,-2.4261,-2.4297,-2.433,-2.4343,-2.4333,-2.4333,-2.4343,-2.4343,-2.434,-2.4341,-2.4221,-2.433,-2.4329,-2.4328,-2.4328,-2.4327,-2.4033,-2.4062,-2.4085,-2.4121,-2.4139,-2.4162,-2.4191,-2.4201,-2.4233,-2.4269,-2.4268,-2.431,-2.4333,-2.4376,-2.4391,-2.4424,-2.441,-2.4425,-2.4429,-2.4432,-2.4436,-2.4335,-2.443,-2.443,-2.4429,-2.4429,-2.4429,0,-2.4125,-2.4139,-2.4171,-2.4205,-2.4233,-2.4222,-2.4248,-2.4272,-2.4308,-2.4331,-2.4359,-2.4403,-2.4438,-2.4452,-2.4486,-2.4509,-2.4506,-2.4518,-2.4516,-2.4519,-2.4446,-2.4434,-2.4521,-2.4521,-2.4521,-2.4521,-2.4521,-2.4521,-2.4176,-2.4226,-2.423,-2.4289,-2.4302,-2.4343,-2.4359,-2.438,-2.4398,-2.4447,-2.4475,-2.4485,-2.4504,-2.4539,-2.457,-2.4574,-2.4586,-2.4601,-2.4602,-2.4534,-2.4524,-2.4515,-2.4504,-2.4604,-2.4604,-2.4673,-2.4673,-2.4674]},{"header":{"parameterUnit":"m.s-1","parameterCategory":1,"la1":30.2991,"la2":30.254,"lo1":-89.0895,"lo2":-89.0444,"dy":0.0017,"dx":0.0017,"nx":28,"ny":28,"refTime":"2023-11-20T03:00:00:Z","depth":0,"parameterNumber":3,"parameterNumberName":"V-component_of_WINDS"},"data":[0,0,0,0,0,0,0,0,0,0,0,0,0,0,0,0,0,0,0,0,0,0,0,0,0,0,0,0,0,0,0,0,0,0,0,0,0,0,0,0,0,0,0,0,0,0,0,0,0,0,0,0,0,0,0,0,0,0,2.2679,2.268,0,2.2835,2.2837,2.2839,2.2868,2.2866,2.2865,2.2864,2.3019,2.3024,2.3029,0,0,0,0,0,0,0,0,0,0,0,0,0,2.24,2.2405,2.2678,2.268,2.2682,2.2835,2.2837,2.2839,2.2868,2.2866,2.2865,2.2863,2.3017,2.3023,2.303,0,0,0,0,0,0,0,0,0,0,0,0,0,2.2535,2.2406,2.2678,2.2715,2.272,2.2835,2.2837,2.284,2.2868,2.2866,2.2864,2.2863,2.3015,2.3023,2.3031,2.3118,0,0,2.3055,2.3058,0,0,0,0,0,0,0,0,2.2527,2.2545,2.2708,2.2713,2.2718,2.283,2.2796,2.2933,2.2869,2.2812,2.2864,2.2862,2.2957,2.297,2.3003,2.3125,2.3132,2.3056,2.3061,2.3064,2.3066,0,0,0,0,0,0,0,2.2518,2.2539,2.274,2.271,2.2717,2.2723,2.274,2.2822,2.2893,2.2816,2.2819,2.2837,2.296,2.2995,2.3007,2.3134,2.3055,2.3063,2.3067,2.3071,2.3336,2.3338,0,0,0,0,0,0,2.2503,2.2531,2.2735,2.2745,2.2616,2.2729,2.2748,2.2796,2.2892,2.2905,2.2839,2.2838,2.2983,2.2998,2.3013,2.3121,2.3064,2.3071,2.3076,2.3334,2.3336,2.3339,0,0,0,0,0,0,2.2496,2.2521,2.2729,2.2639,2.2666,2.2736,2.2789,2.28,2.2836,2.2909,2.2921,2.2863,2.2982,2.3001,2.3092,2.3127,2.3075,2.3082,2.3331,2.3334,2.3337,2.3339,0,0,0,0,0,0,2.2488,2.2518,2.2553,2.2639,2.267,2.2807,2.2792,2.2805,2.285,2.2851,2.2935,2.2947,2.2982,2.308,2.31,2.3137,2.3088,2.3328,2.3332,2.3336,2.3336,2.3342,2.3347,0,0,0,0,0,2.2478,2.2546,2.2554,2.2579,2.2715,2.2809,2.2827,2.2867,2.2853,2.2888,2.2935,2.2944,2.312,2.3089,2.3112,2.3152,2.3326,2.3331,2.3336,2.3334,2.3341,2.3347,0,0,0,0,0,0,2.2459,2.2558,2.2568,2.2666,2.2729,2.2814,2.2859,2.2873,2.294,2.2938,2.2984,2.3003,2.3091,2.313,2.3094,2.3242,2.3222,2.3232,2.3212,2.322,2.3225,2.3213,2.3095,0,0,0,0,0,2.2467,2.2536,2.2618,2.2696,2.2727,2.2788,2.283,2.2856,2.2922,2.2949,2.3002,2.3065,2.3135,2.318,2.3248,2.3342,2.3361,2.3381,2.3387,2.3391,2.3399,2.3452,2.3462,2.3356,2.3355,2.3355,0,0,2.2482,2.2545,2.2585,2.2694,2.2746,2.2815,2.281,2.2883,2.2935,2.2959,2.3049,2.3091,2.3164,2.3257,2.3301,2.3293,2.3433,2.3398,2.34,2.3406,2.3458,2.3469,2.3477,2.3359,2.3358,2.3358,0,0,2.2546,2.26,2.2672,2.2725,2.2805,2.2845,2.2862,2.2945,2.2974,2.3065,2.3085,2.3147,2.3266,2.3317,2.3359,2.3445,2.3455,2.3465,2.3494,2.3545,2.3554,2.3561,2.3592,2.3602,2.3473,2.3473,2.3473,0,2.2555,2.2662,2.2706,2.278,2.2827,2.2855,2.2927,2.2976,2.3072,2.3104,2.3094,2.3245,2.3296,2.3402,2.3423,2.3456,2.3477,2.3455,2.3549,2.3557,2.3565,2.3595,2.3606,2.3474,2.3473,2.3473,2.3473,0,2.2668,2.2742,2.279,2.2886,2.2938,2.3011,2.3065,2.3113,2.3135,2.3176,2.3268,2.3331,2.3412,2.344,2.3461,2.3549,2.3542,2.354,2.3521,2.3575,2.3604,2.3615,2.3475,2.3474,2.3474,2.3474,0,0,2.2723,2.2844,2.2861,2.2905,2.2996,2.3053,2.3127,2.3209,2.3249,2.3315,2.3377,2.3478,2.3478,2.3525,2.3553,2.3598,2.3662,2.3591,2.3594,2.3602,2.3763,2.3764,2.3776,2.367,2.3673,2.3675,2.3757,0,2.2798,2.2932,2.2975,2.3086,2.3155,2.3183,2.3247,2.3309,2.3349,2.3413,2.3456,2.3528,2.3522,2.3551,2.3597,2.3645,2.3695,2.3639,2.3728,2.373,2.3708,2.3791,2.3792,2.3867,2.3769,2.3771,2.3772,0,2.2902,2.2973,2.3091,2.3175,2.3205,2.3262,2.3341,2.3402,2.3473,2.3499,2.3553,2.3577,2.3654,2.3632,2.3739,2.37,2.3739,2.3768,2.3771,2.3781,2.3754,2.3802,2.3892,2.3903,2.379,2.3789,2.3787,0,2.293,2.3054,2.3142,2.3178,2.3278,2.3317,2.336,2.343,2.3477,2.3545,2.3576,2.3652,2.3694,2.3752,2.3796,2.3775,2.3898,2.3879,2.3922,2.392,2.3945,2.3943,2.4042,2.3971,2.3971,2.3971,2.397,0,2.3008,2.308,2.3156,2.3209,2.329,2.3339,2.3417,2.3461,2.3523,2.3585,2.3613,2.367,2.3726,2.379,2.3825,2.3908,2.3926,2.3949,2.3957,2.3946,2.3943,2.3972,2.3967,2.3974,2.3973,2.3972,2.3972,0,2.3053,2.3107,2.3204,2.3291,2.3314,2.337,2.3444,2.3497,2.3539,2.3617,2.3638,2.3704,2.3781,2.3831,2.3929,2.3953,2.4044,2.405,2.402,2.4024,2.4063,2.4059,2.4183,2.4202,2.4119,2.412,2.412,0,2.3099,2.3155,2.3249,2.3293,2.3337,2.3408,2.3457,2.3507,2.3556,2.3642,2.3684,2.3764,2.3831,2.3953,2.4009,2.4084,2.4093,2.4131,2.4104,2.4092,2.4093,2.4089,2.4095,2.4135,2.4136,2.4136,2.4137,0,2.3175,2.32,2.327,2.335,2.3408,2.3472,2.3537,2.3572,2.3633,2.3687,2.3767,2.3819,2.3921,2.3999,2.408,2.4123,2.414,2.4145,2.4159,2.4148,2.4128,2.4139,2.4032,2.4142,2.4141,2.4141,2.4141,2.414,2.3222,2.3273,2.3348,2.3425,2.348,2.354,2.3594,2.3644,2.3713,2.3801,2.3826,2.391,2.398,2.4091,2.4136,2.4201,2.4197,2.4216,2.4221,2.4225,2.4226,2.4118,2.4216,2.4216,2.4216,2.4216,2.4216,0,2.33,2.335,2.342,2.3511,2.3572,2.3585,2.3658,2.3707,2.3782,2.3847,2.3912,2.4005,2.4082,2.4145,2.4224,2.4265,2.4274,2.4284,2.4281,2.429,2.4226,2.4206,2.4274,2.4274,2.4274,2.4274,2.4274,2.4274,2.3347,2.3435,2.3469,2.3584,2.3633,2.3717,2.3758,2.3813,2.3866,2.3969,2.4034,2.4075,2.4139,2.4223,2.4294,2.4311,2.4338,2.4346,2.4363,2.4301,2.4295,2.4289,2.427,2.4351,2.4351,2.4423,2.4424,2.4424]}]]